FW9813 Weather Reports


time (UTC)temp
C
wind
direction
speed
KPH
gust
KPH
rain 1hr
cm
rain 24hr
cm
rain mn
cm
humidity
%
barometer
mb
20230128003033 -10 0 6.4 17.7 0.00 0.00 0.00 67 1012.0
20230128001534 -10 277 9.7 17.7 0.00 0.00 0.00 67 1011.8
20230128000034 -10 246 9.7 19.3 0.00 0.00 0.00 67 1011.4
20230127234533 -10 275 3.2 16.1 0.00 0.00 0.00 68 1010.9
20230127233034 -9 252 6.4 20.9 0.00 0.00 0.00 66 1010.3
20230127231530 -9 231 8.0 19.3 0.00 0.00 0.00 66 1009.8
20230127230028 -8 261 8.0 19.3 0.00 0.00 0.00 66 1009.3
20230127224539 -8 200 4.8 17.7 0.00 0.00 0.00 65 1009.0
20230127223026 -8 271 8.0 20.9 0.00 0.00 0.00 64 1008.7
20230127221527 -7 254 8.0 25.7 0.00 0.00 0.00 64 1008.3
20230127220034 -7 200 4.8 16.1 0.00 0.00 0.00 64 1008.0
20230127214533 -7 251 8.0 19.3 0.00 0.00 0.00 61 1007.5
20230127213031 -6 259 8.0 27.4 0.00 0.00 0.00 61 1007.1
20230127211532 -6 300 11.3 24.1 0.00 0.00 0.00 61 1007.0
20230127210053 -6 271 9.7 25.7 0.00 0.00 0.00 61 1006.7
20230127204531 -6 265 11.3 27.4 0.00 0.00 0.00 63 1006.3
20230127203036 -6 306 8.0 20.9 0.00 0.00 0.00 64 1006.1
20230127201528 -6 257 9.7 30.6 0.00 0.00 0.00 67 1005.8
20230127200031 -6 259 9.7 24.1 0.00 0.00 0.00 68 1005.6
20230127194528 -6 254 9.7 27.4 0.00 0.00 0.00 68 1005.3
20230127193030 -6 246 12.9 33.8 0.00 0.00 0.00 69 1005.2
20230127191533 -6 259 9.7 25.7 0.00 0.00 0.00 69 1005.0
20230127190035 -6 263 12.9 38.6 0.00 0.00 0.00 70 1004.8
20230127184534 -6 264 16.1 32.2 0.00 0.00 0.00 70 1004.7
20230127183047 -6 267 9.7 32.2 0.00 0.00 0.00 72 1004.4
20230127181526 -6 279 9.7 27.4 0.00 0.00 0.00 73 1004.3
20230127180032 -6 220 11.3 33.8 0.00 0.00 0.00 73 1004.0
20230127174534 -6 315 12.9 29.0 0.00 0.00 0.00 73 1003.8
20230127173032 -6 189 12.9 27.4 0.00 0.00 0.00 74 1003.4
20230127171539 -6 196 12.9 30.6 0.00 0.00 0.00 75 1003.3
20230127170030 -6 242 11.3 33.8 0.00 0.00 0.00 76 1003.1
20230127164529 -6 260 9.7 29.0 0.00 0.00 0.00 77 1003.0
20230127163039 -6 267 9.7 33.8 0.00 0.00 0.00 79 1002.6
20230127161531 -5 277 16.1 29.0 0.00 0.00 0.00 80 1002.0
20230127160030 -5 254 12.9 30.6 0.00 0.00 0.00 80 1001.6
20230127154528 -5 244 16.1 32.2 0.00 0.00 0.00 80 1001.3
20230127153030 -4 256 8.0 30.6 0.00 0.00 0.00 81 1000.7
20230127151528 -4 238 12.9 27.4 0.00 0.00 0.00 80 1000.2
20230127150038 -3 244 9.7 27.4 0.00 0.00 0.00 82 999.7
20230127144536 -3 253 6.4 27.4 0.00 0.00 0.00 83 999.2
20230127143055 -2 269 12.9 27.4 0.00 0.00 0.00 82 998.7
20230127141537 -2 306 9.7 29.0 0.00 0.00 0.00 82 998.0
20230127140035 -1 245 12.9 29.0 0.00 0.00 0.00 84 997.4
20230127134533 -1 246 9.7 25.7 0.00 0.00 0.00 85 996.7
20230127133034 0 200 9.7 22.5 0.00 0.00 0.00 88 996.2
20230127131534 0 281 6.4 16.1 0.00 0.00 0.00 92 995.8
20230127130030 0 242 8.0 27.4 0.00 0.00 0.00 95 995.4
20230127124534 0 249 3.2 8.0 0.00 0.00 0.00 96 995.1
20230127123033 0 230 1.6 8.0 0.00 0.00 0.00 96 994.7
20230127121528 -1 258 1.6 8.0 0.00 0.00 0.00 96 994.3
20230127120028 -1 257 0.0 8.0 0.00 0.00 0.00 96 994.1
20230127114529 -1 157 0.0 3.2 0.00 0.00 0.00 96 994.2
20230127113032 -2 0 0.0 3.2 0.00 0.00 0.00 96 994.1
20230127111547 -2 223 0.0 3.2 0.00 0.00 0.00 95 994.3
20230127110035 -2 0 0.0 3.2 0.00 0.00 0.00 95 994.4
20230127104528 -3 0 0.0 3.2 0.00 0.00 0.00 95 994.5
20230127103031 -3 0 0.0 3.2 0.00 0.00 0.00 95 994.5
20230127101536 -3 0 0.0 3.2 0.00 0.00 0.00 95 994.6
20230127100033 -4 0 0.0 3.2 0.00 0.00 0.00 95 994.9
20230127094532 -5 0 0.0 4.8 0.00 0.00 0.00 94 995.1
20230127093034 -5 0 1.6 3.2 0.00 0.00 0.00 93 995.4
20230127091526 -5 138 1.6 11.3 0.00 0.00 0.00 93 995.7
20230127090037 -5 117 1.6 8.0 0.00 0.00 0.00 92 995.9
20230127084532 -5 96 1.6 4.8 0.00 0.00 0.00 92 996.3
20230127083035 -5 113 3.2 9.7 0.00 0.00 0.00 92 996.6
20230127081529 -6 138 1.6 9.7 0.00 0.00 0.00 92 997.0
20230127080034 -6 92 0.0 8.0 0.00 0.00 0.00 93 997.4
20230127074538 -6 205 1.6 6.4 0.00 0.00 0.00 93 997.7
20230127073029 -7 123 1.6 4.8 0.00 0.00 0.00 92 998.2
20230127071545 -7 94 1.6 9.7 0.00 0.00 0.00 92 998.6
20230127070031 -7 104 3.2 11.3 0.00 0.00 0.00 91 998.9
20230127064527 -7 101 3.2 8.0 0.00 0.00 0.00 92 999.4
20230127063043 -8 108 1.6 6.4 0.00 0.00 0.00 92 999.9
20230127061535 -8 103 1.6 8.0 0.00 0.00 0.00 91 1000.4
20230127060038 -8 84 1.6 8.0 0.00 0.00 0.00 91 1000.9
20230127054545 -8 120 1.6 11.3 0.00 0.00 0.00 90 1001.4
20230127053031 -9 115 1.6 9.7 0.00 0.00 0.00 89 1001.8
20230127051534 -9 85 3.2 8.0 0.00 0.00 0.00 88 1002.4
20230127050029 -9 88 3.2 16.1 0.00 0.00 0.00 86 1002.9
20230127044529 -10 99 3.2 9.7 0.00 0.00 0.00 86 1003.1
20230127043028 -10 90 1.6 9.7 0.00 0.00 0.00 86 1003.7
20230127041541 -10 108 3.2 9.7 0.00 0.00 0.00 85 1004.5
20230127040032 -10 118 3.2 6.4 0.00 0.00 0.00 84 1005.2
20230127034531 -10 109 1.6 9.7 0.00 0.00 0.00 84 1005.8
20230127033026 -10 98 3.2 6.4 0.00 0.00 0.00 84 1005.9
20230127031532 -10 95 3.2 11.3 0.00 0.00 0.00 85 1006.2
20230127030039 -10 125 1.6 6.4 0.00 0.00 0.00 85 1007.1
20230127024528 -10 135 3.2 9.7 0.00 0.00 0.00 85 1007.5
20230127023034 -10 128 3.2 12.9 0.00 0.00 0.00 85 1007.7
20230127021532 -11 130 3.2 11.3 0.00 0.00 0.00 86 1007.8
20230127020035 -11 163 1.6 8.0 0.00 0.00 0.00 86 1008.3
20230127014537 -11 164 1.6 9.7 0.00 0.00 0.00 86 1008.7
20230127013032 -11 90 1.6 6.4 0.00 0.00 0.00 85 1009.2
20230127011531 -11 98 1.6 11.3 0.00 0.00 0.00 85 1009.8
20230127010034 -11 145 1.6 8.0 0.00 0.00 0.00 83 1010.7
20230127004539 -11 0 1.6 6.4 0.00 0.00 0.00 82 1011.3